This demonstration page uses our WeatherBlox Daily Observations layout. Learn more.

Left ArrowRight Arrow

Hourly Observations for September 13, 2021

Temp ( °F °C ) Dew Point ( °F °C ) Humidity (%) Winds ( mph kmh ) Pressure ( in mb ) Visibility ( mi km ) Precip ( " mm )
12:00 am 00:00 Clear 64 18 64 18 100 100 E 8 13 29.97 1015 10 16 N/A
12:17 am 00:17 Clear 66 19 64 18 94 94 E 6 9 29.97 1015 10 16 N/A
12:35 am 00:35 Clear 65 18.5 64 17.6 95 95 NE 3 6 29.95 1014 10 16 N/A
12:55 am 00:55 Clear 64 18 63 17.1 95 95 NNE 5 7 29.95 1014 7 11 N/A
1:15 am 01:15 Clear with Mist and Fog 64 17.8 63 17.2 96 96 NNE 3 6 29.95 1014 5 8 N/A
1:35 am 01:35 Clear with Mist and Fog 64 17.6 63 17.1 97 97 N 3 6 29.96 1014 4 6 N/A
1:55 am 01:55 Clear with Mist and Fog 64 17.6 63 17.1 97 97 NNE 3 6 29.96 1014 5 8 N/A
2:15 am 02:15 Clear with Mist and Fog 63 17.3 62 16.8 97 97 N N/A 29.94 1014 4 6 N/A
2:35 am 02:35 Clear with Mist and Fog 64 17.5 63 17.1 98 98 N N/A 29.94 1014 4 6 N/A
2:55 am 02:55 Clear with Mist and Fog 63 17.4 63 17 98 98 N N/A 29.93 1014 4 6 N/A
3:15 am 03:15 Clear with Mist and Fog 63 17.1 62 16.7 98 98 N 5 7 29.91 1013 3 5 N/A
3:35 am 03:35 Clear with Mist and Fog 63 17 62 16.6 98 98 N 7 11 29.91 1013 3 5 N/A
3:55 am 03:55 Partly Cloudy with Mist and Fog 63 17.1 62 16.7 98 98 N 7 11 29.91 1013 3 5 N/A
4:15 am 04:15 Mostly Cloudy with Mist and Fog 63 17.1 62 16.7 98 98 NE 5 7 29.91 1013 3 5 N/A
4:35 am 04:35 Cloudy with Mist and Fog 63 17.1 62 16.7 98 98 NNE 5 7 29.91 1013 3 4 N/A
4:55 am 04:55 Cloudy with Mist and Fog 63 17.1 62 16.7 98 98 NNE 6 9 29.90 1013 2 2 N/A
5:15 am 05:15 Cloudy with Fog 63 17.1 62 16.7 98 98 ENE 3 6 29.90 1013 1 1 N/A
5:35 am 05:35 Cloudy with Fog 63 17.2 62 16.9 98 98 NE 8 13 29.90 1013 0 0 N/A
5:55 am 05:55 Cloudy with Drizzle 63 17.2 63 17 99 99 ENE 7 11 29.89 1012 1 1 N/A
6:15 am 06:15 Cloudy with Drizzle 63 17.2 63 17 99 99 ENE 5 7 29.89 1012 0 0 N/A
6:35 am 06:35 Cloudy with Drizzle 63 17.1 62 16.8 98 98 NE 6 9 29.89 1012 0 0 N/A
6:55 am 06:55 Cloudy with Light Rain 63 17.1 62 16.8 98 98 N N/A 29.88 1012 0 0 N/A
7:15 am 07:15 Cloudy with Fog 63 17.1 62 16.8 98 98 SSE 7 11 29.89 1012 0 0 N/A
7:35 am 07:35 Cloudy with Fog 63 17.2 62 16.9 98 98 SE 7 11 29.90 1013 1 1 N/A
7:55 am 07:55 Cloudy with Fog 63 17.1 62 16.8 98 98 SSW 9 15 29.92 1013 0 0 N/A
8:15 am 08:15 Cloudy with Fog 63 17.2 63 17 99 99 SW 8 13 29.92 1013 0 0 N/A
8:35 am 08:35 Cloudy with Fog 64 17.5 63 17.1 98 98 SSW 6 9 29.90 1012 0 0 N/A
8:55 am 08:55 Cloudy with Fog 64 17.5 63 17.2 98 98 N N/A 29.88 1012 1 1 N/A
9:15 am 09:15 Cloudy with Mist and Fog 64 17.7 64 17.5 99 99 N N/A 29.87 1011 1 1 N/A
9:35 am 09:35 Mostly Cloudy with Mist and Fog 66 18.7 65 18.4 98 98 N N/A 29.86 1011 3 4 N/A
9:55 am 09:55 Partly Cloudy 67 19.4 66 19.1 98 98 SSW 3 6 29.86 1011 7 11 N/A
10:15 am 10:15 Sunny 69 20.4 68 20 98 98 SW 6 9 29.85 1011 10 16 N/A
10:35 am 10:35 Sunny 73 22.7 67 19.2 81 81 SSE 3 6 29.83 1010 10 16 N/A
10:55 am 10:55 Sunny 74 23.6 65 18.5 73 73 S 6 9 29.81 1009 10 16 N/A
11:15 am 11:15 Sunny 76 24.4 65 18.4 69 69 S 6 9 29.80 1009 10 16 N/A
11:35 am 11:35 Sunny 78 25.6 65 18.3 64 64 SSE 6 9 29.78 1009 10 16 N/A
11:55 am 11:55 Sunny 79 26.1 65 18.2 62 62 SSW 3 6 29.77 1008 10 16 N/A
12:15 pm 12:15 Sunny 80 26.7 64 17.6 57 57 N N/A 29.76 1008 10 16 N/A
12:35 pm 12:35 Sunny 82 27.8 65 18.4 57 57 SSE 3 6 29.75 1007 10 16 N/A
12:55 pm 12:55 Sunny 83 28.2 65 18.2 55 55 SSE 5 7 29.71 1006 10 16 N/A
1:15 pm 13:15 Sunny 85 29.5 63 17.4 48 48 SSE 3 6 29.70 1006 10 16 N/A
1:35 pm 13:35 Sunny 87 30.4 61 16.3 43 43 SSW 8 13 29.70 1006 10 16 N/A
1:55 pm 13:55 Sunny 87 30.5 63 17.1 45 45 SSE 5 7 29.67 1005 10 16 N/A
2:15 pm 14:15 Sunny 88 31 61 15.9 40 40 S 5 7 29.67 1005 10 16 N/A
2:35 pm 14:35 Sunny 89 31.8 61 15.9 38 38 SSW 7 11 29.66 1005 10 16 N/A
2:55 pm 14:55 Sunny 89 31.4 61 15.9 39 39 W 6 9 29.67 1005 10 16 N/A
3:15 pm 15:15 Sunny 87 30.6 64 17.6 46 46 N 3 6 29.66 1005 10 16 N/A
3:35 pm 15:35 Sunny 87 30.7 64 17.7 46 46 N 5 7 29.66 1005 10 16 N/A
3:55 pm 15:55 Sunny 86 30.1 65 18.6 50 50 N 8 13 29.66 1004 10 16 N/A
4:15 pm 16:15 Sunny 85 29.3 66 19 54 54 N 9 15 29.66 1005 10 16 N/A
4:35 pm 16:35 Sunny 84 28.8 67 19.3 56 56 N 13 20 29.67 1005 10 16 N/A
4:55 pm 16:55 Sunny 83 28.1 65 18.2 55 55 N 10 17 29.67 1005 10 16 N/A
5:15 pm 17:15 Sunny 82 28 65 18.3 56 56 N 9 15 29.67 1005 10 16 N/A
5:35 pm 17:35 Sunny 83 28.1 65 18.3 55 55 N 6 9 29.68 1005 10 16 N/A
5:55 pm 17:55 Sunny 83 28.2 65 18.6 56 56 NNE 6 9 29.67 1005 10 16 N/A
6:15 pm 18:15 Sunny 81 27.2 66 19.1 61 61 N 3 6 29.68 1005 10 16 N/A
6:35 pm 18:35 Sunny 82 27.5 66 19 60 60 N 7 11 29.69 1005 10 16 N/A
6:55 pm 18:55 Sunny 80 26.4 67 19.3 65 65 NNW 5 7 29.71 1006 10 16 N/A
7:10 pm 19:10 Sunny 78 25.4 68 19.8 71 71 NW 5 7 29.72 1007 10 16 N/A
7:35 pm 19:35 Sunny 76 24.4 67 19.7 75 75 NW 6 9 29.73 1007 10 16 N/A
7:55 pm 19:55 Clear 76 24.4 65 18.5 70 70 NW 7 11 29.73 1007 10 16 N/A
8:15 pm 20:15 Clear 73 23 65 18.5 76 76 NW 6 9 29.74 1007 10 16 N/A
8:35 pm 20:35 Clear 72 22.4 64 17.7 75 75 NW 7 11 29.76 1008 10 16 N/A
8:55 pm 20:55 Clear 72 22.2 63 17.3 74 74 NW 8 13 29.77 1008 10 16 N/A
9:15 pm 21:15 Clear 70 21.2 63 17.4 79 79 NW 6 9 29.79 1009 10 16 N/A
9:35 pm 21:35 Clear 71 21.4 63 17.1 77 77 NW 8 13 29.80 1009 10 16 N/A
9:55 pm 21:55 Clear 69 20.6 63 17 80 80 NNW 7 11 29.81 1010 10 16 N/A
10:15 pm 22:15 Clear 68 20 62 16.7 81 81 NW 7 11 29.83 1010 10 16 N/A
10:35 pm 22:35 Clear 67 19.6 62 16.5 82 82 NNW 7 11 29.83 1010 10 16 N/A
10:55 pm 22:55 Clear 67 19.2 61 16 82 82 NNW 5 7 29.83 1010 10 16 N/A
11:15 pm 23:15 Clear 65 18.5 61 16 85 85 NNW 6 9 29.85 1011 10 16 N/A
11:35 pm 23:35 Clear 64 18 61 15.9 88 88 WNW 5 7 29.86 1011 10 16 N/A
11:55 pm 23:55 Clear 64 17.7 60 15.6 88 88 N N/A 29.87 1011 10 16 N/A

Powered by AerisWeather